When you browse on this site, cookies collect data to enhance your experience and personalize the content and advertising you see.
Visit our Privacy Policy to learn more. By continuing to use the site, you agree to this use of cookies and data.
EN

Hourly Weather Branik

Today, 9 August, Sunday

Time Temperature Precipitation Wind Pressure Humidity
00:00 +21°C° 0 mm 0 mps 746 mmHg 66%
01:00 +21°C° 0 mm 0 mps 746 mmHg 67%
02:00 +21°C° 0 mm 0 mps 746 mmHg 68%
03:00 +20°C° 0 mm 0 mps 746 mmHg 70%
04:00 +20°C° 0 mm 0 mps 746 mmHg 72%
05:00 +21°C° 0 mm 0 mps 746 mmHg 70%
06:00 +22°C° 0 mm 0 mps 746 mmHg 68%
07:00 +23°C° 0 mm 0 mps 746 mmHg 66%
08:00 +25°C° 0 mm 0 mps 746 mmHg 60%
09:00 +27°C° 0 mm 0 mps 746 mmHg 55%
10:00 +29°C° 0 mm 0 mps 746 mmHg 49%
11:00 +32°C° 0 mm 1 mps 746 mmHg 46%
12:00 +32°C° 0 mm 1 mps 746 mmHg 42%
13:00 +34°C° 0 mm 2 mps 745 mmHg 39%
14:00 +34°C° 0 mm 2 mps 745 mmHg 40%
15:00 +34°C° 0 mm 2 mps 745 mmHg 40%
16:00 +32°C° 0 mm 2 mps 745 mmHg 41%
17:00 +31°C° 0 mm 1 mps 745 mmHg 47%
18:00 +29°C° 0 mm 1 mps 744 mmHg 53%
19:00 +28°C° 0 mm 1 mps 744 mmHg 58%
20:00 +27°C° 0 mm 1 mps 744 mmHg 61%
21:00 +26°C° 0 mm 1 mps 744 mmHg 64%
22:00 +25°C° 0 mm 1 mps 744 mmHg 67%
23:00 +24°C° 0.1 mm 1 mps 744 mmHg 70%

Tomorrow, 10 August, Monday

Time Temperature Precipitation Wind Pressure Humidity
00:00 +24°C° 0.1 mm 1 mps 744 mmHg 73%
01:00 +21°C° 0.1 mm 0 mps 744 mmHg 76%
02:00 +21°C° 0 mm 0 mps 744 mmHg 78%
03:00 +20°C° 0 mm 0 mps 744 mmHg 80%
04:00 +20°C° 0 mm 0 mps 744 mmHg 82%
05:00 +21°C° 0 mm 0 mps 744 mmHg 79%
06:00 +22°C° 0 mm 0 mps 744 mmHg 77%
07:00 +23°C° 0 mm 0 mps 744 mmHg 74%
08:00 +26°C° 0.2 mm 1 mps 744 mmHg 69%
09:00 +28°C° 0.2 mm 1 mps 744 mmHg 64%
10:00 +29°C° 0.2 mm 2 mps 744 mmHg 59%
11:00 +30°C° 0.4 mm 2 mps 744 mmHg 56%
12:00 +30°C° 0.4 mm 2 mps 744 mmHg 53%
13:00 +31°C° 0.4 mm 2 mps 744 mmHg 50%
14:00 +31°C° 0.1 mm 2 mps 744 mmHg 50%
15:00 +31°C° 0.1 mm 3 mps 744 mmHg 49%
16:00 +31°C° 0.1 mm 3 mps 744 mmHg 49%
17:00 +29°C° 0.1 mm 3 mps 743 mmHg 55%
18:00 +28°C° 0.1 mm 3 mps 743 mmHg 62%
19:00 +26°C° 0.1 mm 3 mps 743 mmHg 68%
20:00 +25°C° 0.2 mm 3 mps 743 mmHg 72%
21:00 +24°C° 0.2 mm 2 mps 744 mmHg 75%
22:00 +23°C° 0.2 mm 2 mps 744 mmHg 79%
23:00 +23°C° 0 mm 2 mps 744 mmHg 81%

Day after tomorrow, 11 August, Tuesday

Time Temperature Precipitation Wind Pressure Humidity
00:00 +22°C° 0 mm 1 mps 744 mmHg 83%
01:00 +22°C° 0 mm 1 mps 744 mmHg 84%
02:00 +21°C° 0 mm 1 mps 744 mmHg 86%
03:00 +21°C° 0 mm 1 mps 744 mmHg 87%
04:00 +21°C° 0 mm 1 mps 744 mmHg 88%
05:00 +21°C° 0 mm 1 mps 745 mmHg 85%
06:00 +22°C° 0 mm 1 mps 745 mmHg 82%
07:00 +23°C° 0 mm 1 mps 745 mmHg 78%
08:00 +25°C° 0 mm 2 mps 745 mmHg 71%
09:00 +26°C° 0 mm 3 mps 745 mmHg 64%
10:00 +28°C° 0 mm 3 mps 745 mmHg 58%
11:00 +29°C° 0 mm 3 mps 745 mmHg 54%
12:00 +30°C° 0 mm 4 mps 745 mmHg 50%
13:00 +32°C° 0 mm 4 mps 745 mmHg 47%
14:00 +30°C° 0 mm 4 mps 745 mmHg 47%
15:00 +30°C° 0 mm 4 mps 745 mmHg 48%
16:00 +30°C° 0 mm 4 mps 745 mmHg 49%
17:00 +29°C° 0 mm 4 mps 745 mmHg 55%
18:00 +27°C° 0 mm 4 mps 745 mmHg 62%
19:00 +26°C° 0 mm 3 mps 744 mmHg 68%
20:00 +25°C° 0 mm 3 mps 745 mmHg 70%
21:00 +24°C° 0 mm 3 mps 745 mmHg 73%
22:00 +22°C° 0 mm 3 mps 745 mmHg 76%
23:00 +21°C° 0 mm 2 mps 745 mmHg 78%

12 August, Wednesday

Time Temperature Precipitation Wind Pressure Humidity
00:00 +20°C° 0 mm 2 mps 745 mmHg 80%
01:00 +20°C° 0 mm 2 mps 745 mmHg 81%
02:00 +19°C° 0 mm 2 mps 745 mmHg 82%
03:00 +19°C° 0 mm 2 mps 745 mmHg 83%
04:00 +18°C° 0 mm 2 mps 745 mmHg 84%
05:00 +20°C° 0 mm 1 mps 745 mmHg 80%
06:00 +21°C° 0 mm 1 mps 745 mmHg 77%
07:00 +22°C° 0 mm 1 mps 745 mmHg 73%
08:00 +24°C° 0 mm 2 mps 745 mmHg 67%
09:00 +25°C° 0 mm 2 mps 745 mmHg 60%
10:00 +27°C° 0 mm 3 mps 746 mmHg 53%
11:00 +28°C° 0 mm 3 mps 745 mmHg 50%
12:00 +29°C° 0 mm 3 mps 745 mmHg 46%
13:00 +30°C° 0 mm 4 mps 745 mmHg 42%
14:00 +30°C° 0 mm 4 mps 745 mmHg 43%
15:00 +29°C° 0 mm 4 mps 744 mmHg 43%
16:00 +29°C° 0 mm 4 mps 744 mmHg 43%
17:00 +28°C° 0 mm 3 mps 744 mmHg 50%
18:00 +26°C° 0 mm 3 mps 744 mmHg 57%
19:00 +24°C° 0 mm 3 mps 744 mmHg 64%
20:00 +22°C° 0 mm 3 mps 744 mmHg 66%
21:00 +21°C° 0 mm 2 mps 744 mmHg 68%
22:00 +20°C° 0 mm 2 mps 744 mmHg 71%
23:00 +19°C° 0 mm 2 mps 744 mmHg 73%

13 August, Thursday

Time Temperature Precipitation Wind Pressure Humidity
00:00 +19°C° 0 mm 1 mps 743 mmHg 76%
01:00 +19°C° 0 mm 1 mps 743 mmHg 78%
02:00 +18°C° 0 mm 1 mps 743 mmHg 80%
03:00 +18°C° 0 mm 1 mps 743 mmHg 81%
04:00 +16°C° 0 mm 1 mps 743 mmHg 83%
05:00 +18°C° 0 mm 1 mps 743 mmHg 77%
06:00 +19°C° 0 mm 1 mps 743 mmHg 72%
07:00 +19°C° 0 mm 2 mps 743 mmHg 67%
08:00 +21°C° 0 mm 2 mps 743 mmHg 62%
09:00 +24°C° 0 mm 2 mps 742 mmHg 57%
10:00 +26°C° 0 mm 3 mps 742 mmHg 52%
11:00 +28°C° 0 mm 3 mps 742 mmHg 50%
12:00 +29°C° 0 mm 3 mps 742 mmHg 48%
13:00 +31°C° 0 mm 3 mps 741 mmHg 46%
14:00 +31°C° 0 mm 3 mps 741 mmHg 47%
15:00 +31°C° 0 mm 3 mps 741 mmHg 48%
16:00 +31°C° 0 mm 3 mps 740 mmHg 49%
17:00 +30°C° 0 mm 3 mps 740 mmHg 56%
18:00 +28°C° 0 mm 3 mps 740 mmHg 64%
19:00 +26°C° 0 mm 2 mps 740 mmHg 72%
20:00 +25°C° 0 mm 2 mps 740 mmHg 74%
21:00 +24°C° 0 mm 2 mps 740 mmHg 77%
22:00 +23°C° 0 mm 2 mps 740 mmHg 80%
23:00 +23°C° 0 mm 2 mps 740 mmHg 81%

14 August, Friday

Time Temperature Precipitation Wind Pressure Humidity
00:00 +21°C° 0 mm 2 mps 740 mmHg 82%
01:00 +21°C° 0 mm 1 mps 740 mmHg 83%
02:00 +21°C° 0 mm 1 mps 739 mmHg 85%
03:00 +21°C° 0 mm 1 mps 739 mmHg 86%
04:00 +20°C° 0 mm 1 mps 739 mmHg 87%
05:00 +21°C° 0 mm 1 mps 739 mmHg 84%
06:00 +22°C° 0 mm 1 mps 739 mmHg 82%
07:00 +23°C° 0 mm 1 mps 739 mmHg 79%
08:00 +24°C° 0.1 mm 2 mps 739 mmHg 76%
09:00 +25°C° 0.1 mm 2 mps 740 mmHg 73%
10:00 +27°C° 0.1 mm 2 mps 740 mmHg 69%
11:00 +27°C° 0.1 mm 3 mps 740 mmHg 69%
12:00 +27°C° 0.1 mm 3 mps 740 mmHg 69%
13:00 +27°C° 0.1 mm 4 mps 740 mmHg 68%
14:00 +26°C° 0.4 mm 3 mps 740 mmHg 70%
15:00 +26°C° 0.4 mm 2 mps 739 mmHg 71%
16:00 +26°C° 0.4 mm 2 mps 739 mmHg 73%
17:00 +25°C° 0.4 mm 2 mps 739 mmHg 75%
18:00 +24°C° 0.4 mm 1 mps 740 mmHg 78%
19:00 +24°C° 0.4 mm 1 mps 740 mmHg 80%
20:00 +23°C° 0.1 mm 1 mps 740 mmHg 82%
21:00 +22°C° 0.1 mm 1 mps 740 mmHg 84%
22:00 +22°C° 0.1 mm 1 mps 740 mmHg 87%
23:00 +21°C° 0.5 mm 1 mps 740 mmHg 88%
Show more